[Iaude] MPEC G29: 2023 FT54 [a=44.78,e=0.24,i=10.4,H=7.6]

mpec at cfa.harvard.edu mpec at cfa.harvard.edu
Wed Apr 3 16:18:01 EDT 2024


M.P.E.C. 2024-G29                                 Issued 2024 April 3, 20:16 UT

     The Minor Planet Electronic Circulars contain information on unusual
         minor planets, routine data on comets and natural satellites,
         and occasional editorial announcements.  They are published
    on behalf of Division F of the International Astronomical Union by the
          Minor Planet Center, Smithsonian Astrophysical Observatory,
                          Cambridge, MA 02138, U.S.A.
			  
             Prepared using the Tamkin Foundation Computer Network

                              MPC at CFA.HARVARD.EDU
            URL https://www.minorplanetcenter.net/    ISSN 1523-6714

                                   2023 FT54                                    


Observations:
     K23F54T*5C2023 03 21.29907 10 36 04.997+11 23 13.33         22.9 rVEG029568
     K23F54T 5C2023 03 21.49670 10 36 03.978+11 23 18.02         23.0 rVEG029568
     K23F54T  C2023 04 22.06157 10 33 57.168+11 32 16.74         22.9 rVEG029304
     K23F54T  C2023 04 22.12990 10 33 56.988+11 32 17.48         23.0 rVEG029304
     K23F54T  C2023 05 15.09540 10 33 20.228+11 32 56.29         22.9 rVEG029304
     K23F54T  C2023 05 16.07711 10 33 19.890+11 32 50.59         22.9 rVEG029304
     K23F54T  C2024 03 07.26793 10 44 09.568+10 13 33.77         22.9 rVEG029304
     K23F54T  C2024 03 08.26127 10 44 04.096+10 14 01.98         23.0 rVEG029304

Observer details:
304 Las Campanas Observatory.  Observer S. S. Sheppard.  6.5-m Magellan-Baade
    telescope + CCD.
568 Maunakea.  Observers D. J. Tholen, S. S. Sheppard, C. Trujillo.  Measurer
    S. S. Sheppard.  8.2-m Subaru reflector + CCD.

Orbital elements:
2023 FT54                                                                       
Epoch 2024 Mar. 31.0 TT = JDT 2460400.5                 Alexandersen            
M 346.79527              (2000.0)            P               Q                  
n   0.00328946     Peri.  190.87066     -0.99938416     +0.01489380             
a  44.7768311      Node   349.82069     +0.00519104     -0.83273745             
e   0.2376542      Incl.   10.35688     -0.03470376     -0.55346772             
P 300              H    7.66          G   0.15           U   7                  
Residuals in seconds of arc
230321 568  0.0   0.0     230422 304  0.1+  0.2+    240307 304  0.1+  0.1+
230321 568  0.0   0.1-    230515 304  0.0   0.0     240308 304  0.2-  0.1-
230422 304  0.1-  0.0     230516 304  0.1+  0.0

Ephemeris:
2023 FT54                a,e,i = 44.78, 0.24, 10                 q = 34.1354
Date    TT    R. A. (2000) Decl.     Delta      r    Elong.  Phase     V
2024 03 04    10 44 27.6 +10 11 59  33.6324 34.6199   174.7     0.2    23.0
...
2024 03 19    10 43 06.7 +10 18 55  33.6808 34.6164   159.7     0.6    23.1
...
2024 03 27    10 42 26.8 +10 22 11  33.7332 34.6145   151.7     0.8    23.1
...
2024 04 02    10 41 59.1 +10 24 22  33.7836 34.6131   145.6     0.9    23.1
2024 04 03    10 41 54.7 +10 24 42  33.7929 34.6129   144.6     1.0    23.2
2024 04 04    10 41 50.3 +10 25 02  33.8024 34.6127   143.6     1.0    23.2
...
2024 04 10    10 41 25.8 +10 26 51  33.8647 34.6113   137.6     1.1    23.2
...
2024 04 18    10 40 57.5 +10 28 48  33.9598 34.6094   129.7     1.3    23.2
...
2024 05 03    10 40 19.8 +10 30 48  34.1690 34.6059   114.9     1.5    23.2

M. P. C. Staff               (C) Copyright 2024 MPC           M.P.E.C. 2024-G29





More information about the Iaude mailing list